Estación de San Ignacio

Ultimos registro cada 15 minutos 68
Estación Fecha / Hora Temperatura Humedad Lluvia Velocidad Dirección Radiación Presion
68 San Ignacio 04-05-2026 16:45 14,4 87 0 0 134 28 1030,5
67 San Ignacio 04-05-2026 16:30 14,4 87 0 0 134 28 1030,5
66 San Ignacio 04-05-2026 16:15 14,5 86 0 0 134 30 1030,9
65 San Ignacio 04-05-2026 16:00 14,6 86 0 0 134 42 1031,4
64 San Ignacio 04-05-2026 15:45 14,8 86 0 0 134 46 1031,5
63 San Ignacio 04-05-2026 15:30 14,8 86 0 0 134 46 1031,5
62 San Ignacio 04-05-2026 15:15 14,8 86 0 0 134 51 1031,6
61 San Ignacio 04-05-2026 15:00 14,9 86 0 0 134 65 1031,2
60 San Ignacio 04-05-2026 14:45 14,7 86 0 0 134 90 1031,7
59 San Ignacio 04-05-2026 14:30 14,7 86 0 0 134 90 1031,7
58 San Ignacio 04-05-2026 14:15 14,7 86 0 0 134 113 1032
57 San Ignacio 04-05-2026 14:00 14,6 86 0 0 134 102 1031,8
56 San Ignacio 04-05-2026 13:45 14,7 87 0 0 134 209 1032,1
55 San Ignacio 04-05-2026 13:30 14,7 87 0 0 134 209 1032,1
54 San Ignacio 04-05-2026 13:15 14,7 88 0 0 134 269 1032,5
53 San Ignacio 04-05-2026 13:00 14,2 88 0 0 134 214 1032,9
52 San Ignacio 04-05-2026 12:45 14,1 89 0 0 134 155 1033,1
51 San Ignacio 04-05-2026 12:30 14,1 89 0 0 134 155 1033,1
50 San Ignacio 04-05-2026 12:15 13,9 89 0 0 134 193 1033
49 San Ignacio 04-05-2026 12:00 13,7 89 0 0 134 135 1033
48 San Ignacio 04-05-2026 11:45 13,3 90 0 0 134 148 1033
47 San Ignacio 04-05-2026 11:30 13,3 90 0 0 134 148 1033
46 San Ignacio 04-05-2026 11:15 13,1 91 0 0 134 144 1033,2
45 San Ignacio 04-05-2026 11:00 12,9 91 0 0 134 121 1033,7
44 San Ignacio 04-05-2026 10:45 12,4 91 0 0 134 83 1033,3
43 San Ignacio 04-05-2026 10:30 12,4 91 0 0 134 83 1033,3
42 San Ignacio 04-05-2026 10:15 12,4 91 0 0 134 54 1033,3
41 San Ignacio 04-05-2026 10:00 12,4 91 0 0 134 81 1033,1
40 San Ignacio 04-05-2026 09:45 12,3 92 0 0 134 47 1033
39 San Ignacio 04-05-2026 09:30 12,3 92 0 0 134 47 1033
38 San Ignacio 04-05-2026 09:15 12,1 91 0 0 134 63 1032,5
37 San Ignacio 04-05-2026 09:00 11,9 92 0 0 134 62 1032,7
36 San Ignacio 04-05-2026 08:45 11,2 92 0 0 134 47 1032,6
35 San Ignacio 04-05-2026 08:30 11,2 92 0 0 134 47 1032,6
34 San Ignacio 04-05-2026 08:15 10,7 91 0 0 134 19 1032,5
33 San Ignacio 04-05-2026 08:00 10,5 91 0 0 134 16 1032,2
32 San Ignacio 04-05-2026 07:45 10,5 91 0 0 134 0 1031,8
31 San Ignacio 04-05-2026 07:30 10,5 91 0 0 134 0 1031,8
30 San Ignacio 04-05-2026 07:15 10,3 91 0 0 134 0 1031,9
29 San Ignacio 04-05-2026 07:00 10,1 91 0 0 134 0 1032
28 San Ignacio 04-05-2026 06:45 9,8 91 0 0 134 0 1032,3
27 San Ignacio 04-05-2026 06:30 9,8 91 0 0 134 0 1032,3
26 San Ignacio 04-05-2026 06:15 9,7 91 0 0 134 0 1032,2
25 San Ignacio 04-05-2026 06:00 9,9 91 0 0 134 0 1032
24 San Ignacio 04-05-2026 05:45 10,3 91 0 0 134 0 1031,7
23 San Ignacio 04-05-2026 05:30 10,3 91 0 0 134 0 1031,7
22 San Ignacio 04-05-2026 05:15 10,2 91 0 0 134 0 1031,9
21 San Ignacio 04-05-2026 05:00 10,2 91 0 0 134 0 1031,9
20 San Ignacio 04-05-2026 04:45 10,3 91 0 0 134 0 1032
19 San Ignacio 04-05-2026 04:30 10,3 91 0 0 134 0 1032
18 San Ignacio 04-05-2026 04:15 10,4 91 0 0 134 0 1031,2
17 San Ignacio 04-05-2026 04:00 10,4 91 0 0 134 0 1031,3
16 San Ignacio 04-05-2026 03:45 10,7 91 0 0 134 0 1032,2
15 San Ignacio 04-05-2026 03:30 10,7 91 0 0 134 0 1032,2
14 San Ignacio 04-05-2026 03:15 10,7 91 0 0 134 0 1032,4
13 San Ignacio 04-05-2026 03:00 10,6 91 0 0 134 0 1032,5
12 San Ignacio 04-05-2026 02:45 10,3 90 0 0 134 0 1032,1
11 San Ignacio 04-05-2026 02:30 10,3 90 0 0 134 0 1032,1
10 San Ignacio 04-05-2026 02:15 10,7 91 0 0 134 0 1032
9 San Ignacio 04-05-2026 02:00 10,9 90 0 0 134 0 1032,1
8 San Ignacio 04-05-2026 01:45 11,1 91 0 0 134 0 1032,9
7 San Ignacio 04-05-2026 01:30 11,1 91 0 0 134 0 1032,9
6 San Ignacio 04-05-2026 01:15 11,1 91 0 0 134 0 1033,3
5 San Ignacio 04-05-2026 01:00 11,1 91 0 0 134 0 1033,6
4 San Ignacio 04-05-2026 00:45 11,1 90 0 0 134 0 1033,8
3 San Ignacio 04-05-2026 00:30 11,1 90 0 0 134 0 1033,8
2 San Ignacio 04-05-2026 00:15 11,1 90 0 0 134 0 1033,7
1 San Ignacio 04-05-2026 00:00 11,1 90 0 0 134 0 1033,7